sat.trackr.live / text

‹ back to catalog

STARLINK-31982

NORAD 60022 · 2024-111G

PAYLOAD ACTIVE UNKNOWN

§ Identity

Operator
Country
US
Launch date
2024-06-08
Launch site
AFETR
Launch vehicle
Mass (kg)
RCS (m²)

Purposes: comms

External: N2YO · Heavens-Above · Gunter

§ Orbital elements

Epoch: 2026-05-25T04:35:51.210816Z

Period
93.85 min
Inclination
53.1610°
Eccentricity
0.0001216
Mean motion
15.34373558 rev/d
Perigee alt
461.9 km
Apogee alt
463.6 km
Semi-major
6,840.9 km
B*
-2.6055e-5
RAAN
79.0562°
Arg perigee
97.8193°
Mean anomaly
262.2948°
Rev number
11,077

§ Raw data

STARLINK-319821 60022U 24111G   26145.19156494 -.00001256  00000+0 -26055-4 0  99932 60022  53.1610  79.0562 0001216  97.8193 262.2948 15.34373558110777

JSON: /api/v1/satellites/60022 · /tle

For live sub-satellite position, see the globe view (requires WebGL).

§ Visibility from observer

Set your observer location to see the next 7 days of passes ≥ 10°. The values pass through the URL so the page stays shareable.

No JS? Fill the form by hand. The geolocation button needs JavaScript.